Cloud_Cover
84 96 59 100 100 100 100 100 100 100 100 100 100 100 100 93 74 94 100 87 88 17 35 6 90 100 11 6 5 1 0 0 4 5 5 2 2 1 0 14 94 98 83 100 4 34 20 26 5 5 28 94 33 13
97 75 99 100 93 91 100 100 100 100 100 100 100 100 100 100 100 100 100 100 100 100 36 17 87 100 94 5 10 5 4 0 5 64 50 4 0 0 1 3 0 1 7 8 0 5 53 10 5 5 5 5 7 29
98 85 100 100 100 100 100 100 100 100 100 100 100 100 100 100 100 100 100 99 100 100 61 56 92 94 100 8 97 32 5 5 4 4 38 60 5 0 0 0 0 0 0 0 0 0 3 5 5 5 5 5 5 1
70 100 100 100 75 100 100 100 100 100 100 100 100 100 100 100 100 100 100 100 100 100 83 73 99 21 94 88 27 50 9 5 5 5 5 13 89 31 20 2 0 0 0 0 0 0 0 0 0 0 0 0 0 3
99 26 100 100 80 99 100 100 100 100 100 100 100 100 100 100 100 100 100 100 100 100 24 62 61 95 100 94 26 6 11 5 5 22 5 7 8 93 17 34 0 0 0 0 0 0 0 0 0 0 1 4 5 1
92 98 86 93 67 90 100 100 100 100 100 100 100 100 100 100 100 100 100 100 89 100 10 90 56 98 100 100 100 96 56 33 50 77 63 69 100 94 26 5 4 0 0 0 1 2 0 0 0 0 0 0 0 1
69 100 100 100 100 84 100 100 100 100 100 100 100 100 100 100 100 100 100 100 100 76 53 84 30 100 100 100 100 100 95 84 67 69 100 100 100 92 5 0 0 0 0 0 0 0 0 0 3 0 0 0 0 0
29 44 98 96 100 100 100 100 100 100 100 100 100 100 100 100 100 100 100 100 100 46 39 61 97 93 95 95 99 73 100 100 100 100 100 100 100 99 4 0 0 0 0 0 0 0 1 1 2 5 0 0 0 0
84 5 24 99 100 100 100 100 100 100 100 100 100 100 100 100 100 100 100 100 7 36 72 68 79 99 100 100 100 100 100 100 100 100 100 100 52 72 5 4 0 0 2 0 5 5 5 5 39 47 7 5 5 4
100 23 7 98 100 100 100 100 100 100 100 100 100 100 100 100 100 100 100 32 95 100 100 100 100 100 100 87 100 100 100 100 100 100 100 100 35 42 5 5 5 5 5 5 22 99 100 100 100 100 100 90 10 0
100 74 100 100 100 100 100 100 100 100 100 100 100 100 100 100 94 78 99 6 91 100 100 100 100 100 83 88 96 100 100 100 100 73 66 88 84 32 5 5 5 6 61 59 100 100 84 37 21 5 3 2 0 0
100 100 100 100 100 100 100 100 100 100 100 100 100 100 100 98 25 100 39 47 60 100 100 100 100 100 92 76 99 100 100 100 80 15 12 85 8 3 5 5 5 17 95 100 54 5 5 5 5 1 0 2 0 0
100 100 100 100 100 100 100 100 100 100 100 100 100 100 100 100 100 63 32 51 95 100 100 100 97 98 99 100 100 100 100 100 34 43 69 23 28 30 5 34 56 28 8 5 5 2 4 5 1 4 0 0 0 5
100 100 100 100 100 100 100 100 100 100 100 100 100 100 100 99 74 98 100 85 93 100 97 72 93 100 100 100 100 100 100 100 64 80 6 5 5 5 5 1 5 0 0 0 4 4 5 6 5 5 5 5 4 1
100 100 100 100 100 100 100 100 100 100 100 100 100 100 100 100 100 100 97 74 82 66 42 86 100 100 100 100 100 100 100 100 52 5 5 5 5 5 5 5 1 5 4 5 5 18 82 79 49 5 5 5 0 0
100 100 100 100 100 100 100 100 100 100 100 100 100 100 100 100 100 56 66 91 94 93 100 100 100 100 100 100 100 100 100 54 8 5 5 5 5 5 4 0 4 5 5 5 5 25 20 6 5 5 5 1 0 0
100 100 100 100 100 100 100 100 100 100 100 100 100 100 100 100 100 79 57 97 100 100 100 100 100 100 100 100 100 100 61 61 5 5 5 5 5 5 0 0 0 5 5 32 59 30 1 5 5 3 1 0 0 0
100 100 100 100 100 100 100 100 96 97 100 100 100 100 100 100 89 73 93 88 86 100 100 100 99 100 96 100 100 77 86 6 5 5 5 5 5 5 5 3 5 5 5 15 5 5 0 1 5 5 5 1 2 2
100 100 100 100 100 100 100 100 95 100 100 100 100 100 100 100 91 36 75 98 100 94 67 50 100 96 100 92 84 90 12 5 5 5 5 54 16 10 5 5 73 39 30 60 4 0 3 4 5 5 5 3 5 5
100 100 100 100 100 100 100 100 81 100 100 100 100 100 100 98 75 81 69 25 90 6 20 80 100 100 78 65 51 6 5 5 5 60 97 79 62 5 5 73 50 73 77 76 6 2 4 5 5 5 4 5 11 73
100 100 100 100 100 100 100 100 100 100 100 100 99 86 94 54 47 39 36 87 17 96 100 100 94 70 13 5 5 5 5 10 15 10 8 41 6 5 51 11 24 5 32 87 100 50 5 5 5 5 5 5 33 79
100 77 91 100 100 94 99 100 100 100 97 94 79 72 99 62 52 36 69 65 81 88 37 54 39 6 5 5 5 5 5 5 5 5 5 10 16 15 22 5 5 62 97 100 100 100 69 6 5 5 4 46 14 83
100 100 92 99 93 80 63 30 59 77 60 67 34 23 6 11 5 15 31 100 100 71 26 5 5 5 5 5 5 8 30 11 19 9 48 16 41 38 61 26 6 52 100 100 99 100 100 32 42 5 5 4 47 100
80 100 100 86 85 84 64 85 75 73 26 53 41 84 52 60 100 92 100 99 18 48 6 5 5 5 5 18 100 84 5 27 11 100 59 6 43 26 14 30 6 46 100 100 100 100 44 100 41 52 5 6 90 85
100 81 100 100 95 86 100 56 16 80 53 16 27 28 30 100 100 100 100 88 57 36 37 25 27 7 18 84 95 98 14 23 9 11 39 99 100 100 100 75 25 44 100 100 100 100 81 100 97 92 25 39 45 5
98 84 72 69 68 80 72 90 95 97 92 84 100 100 100 100 100 99 100 98 73 12 41 47 32 65 58 100 85 41 31 5 5 30 100 98 48 73 100 88 100 100 100 100 100 99 62 100 100 100 73 20 5 18
100 63 45 14 66 76 65 86 64 77 99 100 100 100 100 100 100 96 92 100 99 31 49 100 100 100 100 96 70 47 18 6 20 75 76 73 15 100 96 80 100 100 100 100 100 100 44 100 100 100 100 97 44 20
45 68 91 77 28 58 62 91 100 100 100 100 100 100 100 100 100 100 99 94 100 100 100 100 100 100 100 88 48 22 8 29 81 96 89 94 100 100 100 100 100 100 100 100 100 100 79 100 100 100 100 95 90 6
28 34 32 74 56 96 82 96 100 100 100 100 100 100 100 100 100 92 100 100 100 100 100 100 67 10 5 17 67 100 95 71 100 100 100 100 100 100 100 100 100 100 100 100 100 100 100 100 100 100 100 68 85 39
37 42 69 63 66 90 47 73 92 96 91 100 100 100 100 100 100 100 100 100 100 100 100 100 100 62 70 100 100 96 100 100 100 98 97 100 100 100 100 100 100 100 100 100 100 100 100 100 100 100 100 40 32 68
99 63 45 49 29 11 38 6 89 84 100 100 100 100 100 99 97 100 100 100 100 99 100 100 91 97 99 100 100 100 99 97 80 64 61 93 91 98 100 100 100 100 100 100 100 100 100 100 100 97 57 58 56 81
62 59 65 47 71 46 54 75 90 81 93 100 100 100 98 99 99 100 100 99 100 100 81 16 84 100 100 100 100 100 100 100 100 100 100 100 100 100 100 100 100 100 100 100 100 100 100 100 73 16 55 81 61 57
95 97 100 100 99 99 99 100 100 100 100 100 100 100 98 94 87 72 33 5 9 100 99 96 100 100 100 100 100 100 100 100 100 90 94 100 100 100 100 100 100 100 100 100 100 100 92 15 8 62 98 100 100 99